Location: Boda
(47.1872°N, 9.5454°E)
Time: 08:43:53
(UTC+00:00)

Landsat 4 - Pass Details

Date: 14 May 2021
Orbit: 505 x 520 km, 98.2° (Epoch: 16 June)

Event Time Altitude Azimuth Distance (km) Brightness Sun altitude
Rises 01:44:17 0° 11° (N) 2,640 8.5 -16.4°
Reaches altitude 10° 01:46:24 10° 8° (N) 1,751 7.3 -16.2°
Maximum altitude 01:50:08 65° 287° (WNW) 571 3.7 -15.8°
Enters shadow 01:51:44 32° 215° (SW) 910 4.3 -15.7°
